User: anonymous   Login
Location: Unspecified
(0.0000°N, 0.0000°E)
Time: 19:06:09
(UTC+00:00)
Language:

ONEWEB-0541 - Orbit

View from above orbital plane
View from above orbital plane
View from above satellite
View from above satellite

Ground track
Ground track

The orbit is defined by the following mean orbital elements,

1 55142U          26145.36957243 +.00000000 +00000-0 -26804-3 0 00001
2 55142  87.8916  25.5960 0001661  86.3760 273.7558 13.11415170    00
Epoch (UTC): 25 May 2026 08:52:11
Eccentricity: 0.0001661
inclination: 87.8916°
perigee height: 1216 km
apogee height: 1219 km
right ascension of ascending node: 25.5960°
argument of perigee: 86.3760°
revolutions per day: 13.11415170
mean anomaly at epoch: 273.7558°

The dashed part of the orbit path shows where the satellite is in the earth's shadow,  

DLR